Altoona, PA

8:52 PM EDT on April 27, 2017 (GMT -0400)
Altoona-Blair County

Weather History for KAOO - December, 2012

Change the Weather History Date:

Friday, December 7, 2012

  Actual Average Record
Temperature  
Mean Temperature 35 °F 33 °F  
Max Temperature 37 °F 40 °F 69 °F (1951)
Min Temperature 33 °F 26 °F -1 °F (1958)
Degree Days  
Heating Degree Days 30 32  
Month to date heating degree days 215  
Since 1 July heating degree days 1525  
Cooling Degree Days 0 0  
Month to date cooling degree days 0  
Year to date cooling degree days 522  
Moisture  
Dew Point 33 °F    
Average Humidity 91    
Maximum Humidity 100    
Minimum Humidity 64    
Precipitation  
Precipitation 0.41 in 0.09 in 1.31 in (2011)
Month to date precipitation 0.64  
Year to date precipitation 30.85  
Sea Level Pressure  
Sea Level Pressure 30.05 in    
Wind  
Wind Speed 2 mph (South)    
Max Wind Speed 7 mph    
Max Gust Speed -    
Visibility 4 miles    
Events Rain    
T = Trace of Precipitation, MM = Missing Value Source: NWS Daily Summary

Daily Weather History Graph

Daily Weather History Graph

Search for Another Location

Airport or City:

Trip Planner

Search our weather history database for the weather conditions in past years. The results will help you decide how hot, cold, wet, or windy it might be!

Date:

Astronomy

Dec. 07, 2012 Rise Set
Actual Time 7:22 AM EST 4:46 PM EST
Civil Twilight 6:52 AM EST 5:17 PM EST
Nautical Twilight 6:18 AM EST 5:51 PM EST
Astronomical Twilight 5:45 AM EST 6:24 PM EST
Moon 12:39 AM EST (12/7) 12:43 PM EST (12/7)
Length of Visible Light 10h 24m
Length of Day
9h 24m
Last Quarter, 39% of the Moon is Illuminated
Dec 7
Last Quarter
Dec 13
New
Dec 20
First Quarter
Dec 28
Full
Jan 4
Last Quarter

Hourly Weather History & Observations

Time (EST) Temp. Windchill Dew Point Humidity Pressure Visibility Wind Dir Wind Speed Gust Speed Precip Events Conditions
12:53 AM 34.0 °F - 23.0 °F 64% 30.15 in 10.0 mi Calm Calm - N/A   Overcast
1:53 AM 35.1 °F - 24.1 °F 64% 30.15 in 10.0 mi Calm Calm - N/A   Overcast
2:53 AM 35.1 °F 29.3 °F 24.1 °F 64% 30.14 in 10.0 mi South 6.9 mph - N/A   Overcast
3:53 AM 34.0 °F 31.0 °F 27.0 °F 75% 30.12 in 7.0 mi SSW 3.5 mph - 0.01 in Rain Light Rain
4:53 AM 33.1 °F - 30.0 °F 89% 30.11 in 4.0 mi Calm Calm - 0.02 in Rain Light Rain
5:53 AM 33.1 °F 27.7 °F 30.0 °F 89% 30.11 in 7.0 mi South 5.8 mph - 0.02 in   Overcast
6:53 AM 33.1 °F 30.0 °F 30.9 °F 92% 30.11 in 4.0 mi SSE 3.5 mph - 0.00 in Rain Light Rain
7:53 AM 34.0 °F - 30.9 °F 89% 30.12 in 5.0 mi Calm Calm - 0.02 in Rain Light Rain
8:22 AM 33.8 °F - 32.0 °F 93% 30.07 in 2.5 mi Calm Calm - 0.01 in Rain Light Rain
8:34 AM 33.8 °F - 32.0 °F 93% 30.07 in 2.5 mi Calm Calm - 0.01 in Rain Light Rain
8:48 AM 33.8 °F - 32.0 °F 93% 30.07 in 3.0 mi Calm Calm - 0.01 in Rain Light Rain
8:53 AM 34.0 °F - 32.0 °F 92% 30.12 in 3.0 mi Calm Calm - 0.01 in Rain Light Rain
9:18 AM 33.8 °F - 32.0 °F 93% 30.07 in 2.5 mi Calm Calm - 0.01 in Rain Light Rain
9:26 AM 33.8 °F - 32.0 °F 93% 30.07 in 3.0 mi Calm Calm - 0.01 in Rain Light Rain
9:36 AM 33.8 °F - 32.0 °F 93% 30.08 in 4.0 mi Calm Calm - 0.01 in   Overcast
9:53 AM 34.0 °F 28.8 °F 32.0 °F 92% 30.12 in 4.0 mi South 5.8 mph - 0.01 in   Overcast
10:10 AM 35.6 °F 31.7 °F 33.8 °F 93% 30.08 in 3.0 mi South 4.6 mph - 0.00 in Rain Light Rain
10:24 AM 35.6 °F 32.8 °F 33.8 °F 93% 30.08 in 4.0 mi South 3.5 mph - 0.01 in Rain Light Rain
10:53 AM 35.1 °F 30.1 °F 33.1 °F 92% 30.11 in 5.0 mi South 5.8 mph - 0.02 in Rain Light Rain
11:42 AM 35.6 °F 31.7 °F 33.8 °F 93% 30.03 in 4.0 mi SSW 4.6 mph - 0.00 in   Overcast
11:53 AM 36.0 °F 33.3 °F 34.0 °F 93% 30.08 in 4.0 mi SW 3.5 mph - 0.00 in   Overcast
12:53 PM 36.0 °F 33.3 °F 34.0 °F 93% 30.06 in 4.0 mi WSW 3.5 mph - 0.00 in   Mist
1:17 PM 37.4 °F - 35.6 °F 93% 30.01 in 4.0 mi Calm Calm - N/A   Overcast
1:53 PM 37.0 °F - 35.1 °F 93% 30.04 in 3.0 mi Calm Calm - N/A   Overcast
2:32 PM 37.4 °F 34.9 °F 35.6 °F 93% 30.00 in 4.0 mi SSE 3.5 mph - N/A   Overcast
2:53 PM 37.9 °F 34.4 °F 35.1 °F 89% 30.04 in 5.0 mi South 4.6 mph - N/A   Overcast
3:12 PM 37.4 °F - 35.6 °F 93% 29.99 in 4.0 mi Calm Calm - N/A   Overcast
3:48 PM 37.4 °F - 35.6 °F 93% 30.00 in 4.0 mi Calm Calm - 0.00 in   Overcast
3:53 PM 37.9 °F - 36.0 °F 93% 30.04 in 4.0 mi Calm Calm - 0.00 in   Overcast
4:53 PM 37.9 °F - 36.0 °F 93% 30.04 in 4.0 mi Calm Calm - 0.00 in Rain Light Rain
5:08 PM 37.4 °F - 35.6 °F 93% 29.99 in 3.0 mi Calm Calm - 0.01 in Rain Light Rain
5:36 PM 37.4 °F - 35.6 °F 93% 29.99 in 3.0 mi Calm Calm - 0.02 in Rain Light Rain
5:53 PM 37.9 °F - 36.0 °F 93% 30.03 in 3.0 mi Calm Calm - 0.02 in Rain Light Rain
6:07 PM 37.4 °F - 35.6 °F 93% 29.99 in 2.5 mi Calm Calm - 0.00 in Rain Light Rain
6:28 PM 37.4 °F - 37.4 °F 100% 29.99 in 2.5 mi Calm Calm - 0.00 in Rain Light Rain
6:53 PM 37.9 °F - 37.0 °F 97% 30.03 in 2.5 mi Calm Calm - 0.01 in Rain Light Rain
9:23 PM 37.4 °F - 37.4 °F 100% 29.97 in 1.2 mi Calm Calm - 0.04 in Rain Light Rain
9:53 PM 37.9 °F - 36.0 °F 93% 30.00 in 1.2 mi Calm Calm - 0.08 in Rain Rain
10:53 PM 37.9 °F 34.4 °F 36.0 °F 93% 30.01 in 1.8 mi WNW 4.6 mph - 0.12 in Rain Rain
11:04 PM 37.4 °F 34.9 °F 37.4 °F 100% 29.95 in 2.0 mi ENE 3.5 mph - 0.02 in Rain Rain
11:13 PM 37.4 °F 33.8 °F 35.6 °F 93% 29.95 in 2.0 mi East 4.6 mph - 0.03 in Rain Rain
11:37 PM 37.4 °F 34.9 °F 35.6 °F 93% 29.94 in 1.5 mi NNE 3.5 mph - 0.05 in Rain Light Rain
11:45 PM 37.4 °F 34.9 °F 35.6 °F 93% 29.94 in 2.0 mi North 3.5 mph - 0.06 in Rain Light Rain
11:53 PM 37.0 °F 34.5 °F 36.0 °F 96% 29.98 in 2.5 mi NE 3.5 mph - 0.07 in Rain Rain